Regional Weather Roundup
Issued by NWS

Home | Current Version | Previous Version | Graphics & Text | Print | Product List | Glossary On
Versions: 1 2 3 4 5 6 7 8 9 10 11 12 13 14 15 16 17 18 19 20 21 22 23 24 25 26 27 28 29 30 31 32 33 34 35 36 37 38 39 40 41 42 43 44 45 46 47 48 49 50
000
ASUS45 KCYS 280610
RWRWY

WYOMING REGIONAL WEATHER ROUNDUP
NATIONAL WEATHER SERVICE CHEYENNE WY
1100 PM MST TUE JAN 27 2015

NOTE:  "FAIR" INDICATES FEW OR NO CLOUDS BELOW 12,000 FEET
WITH NO SIGNIFICANT WEATHER AND/OR OBSTRUCTIONS TO VISIBILITY.

WYZ001-280700-
YELLOWSTONE NATIONAL PARK

CITY           SKY/WX    TMP DP  RH WIND       PRES   REMARKS
LK YELLOWSTONE   N/A     30  29  96 CALM      30.14S
6HR MIN TEMP:  30; 6HR MAX TEMP:  38; 6HR PCP:  0.04;

W YELLOWSTONE  NOT AVBL

$$
WYZ002>013-054>058-071-098>099-280700-
NORTHERN WYOMING

CITY           SKY/WX    TMP DP  RH WIND       PRES   REMARKS
JACKSON        CLOUDY    30  28  93 N7        30.13S WCI  23
CODY           CLOUDY    52  28  40 SW21G32   29.93S
GREYBULL       FAIR      29  27  92 E3        29.96R
6HR MIN TEMP:  28; 6HR MAX TEMP:  34;

WORLAND        FAIR      27  24  89 NE3       29.96S
6HR MIN TEMP:  23; 6HR MAX TEMP:  32;

SHERIDAN       FAIR      39  28  64 VRB3      29.87R
6HR MIN TEMP:  34; 6HR MAX TEMP:  45;

BUFFALO        FAIR      50  23  34 NW6       29.90R
6HR MIN TEMP:  43; 6HR MAX TEMP:  52;

GILLETTE       FAIR      45  30  55 W13       29.85S
6HR MIN TEMP:  39; 6HR MAX TEMP:  52;

HULETT           N/A    N/A N/A N/A MISG        N/A
NEWCASTLE      FAIR      37  28  70 N3        29.92R

$$
WYZ014>020-022>026-101>103-280700-
CENTRAL WYOMING

CITY           SKY/WX    TMP DP  RH WIND       PRES   REMARKS
BIG PINEY      FAIR      21  18  88 E3        30.16R
6HR MIN TEMP:  21; 6HR MAX TEMP:  37;

PINEDALE       CLOUDY    21  19  93 NW5       30.16S WCI  15
DUBOIS         DRIZZLE   37  28  70 NW14      30.08S WCI  29
LANDER         FAIR      36  27  69 VRB3      30.02R
6HR MIN TEMP:  32; 6HR MAX TEMP:  42;

RIVERTON       FAIR      34  27  75 SW5       30.04R WCI  30
6HR MIN TEMP:  30; 6HR MAX TEMP:  40;

CASPER         MOCLDY    41  28  60 SW22G29   30.01S
6HR MIN TEMP:  41; 6HR MAX TEMP:  50;

DOUGLAS        FAIR      50  28  42 W14G32    29.99R
6HR MIN TEMP:  50; 6HR MAX TEMP:  58;


$$
WYZ021-027>030-104>119-280700-
SOUTHERN WYOMING

CITY           SKY/WX    TMP DP  RH WIND       PRES   REMARKS
EVANSTON       FAIR      33  29  85 SW9       30.18S WCI  25
6HR MIN TEMP:  32; 6HR MAX TEMP:  42; 6HR PCP: TRACE;

KEMMERER       MOCLDY    32  28  86 SW6       30.18S WCI  26
FORT BRIDGER   FAIR      39  31  75 SW12      30.20S WCI  31
ROCK SPRINGS   CLOUDY    37  28  70 W9        30.16F WCI  30
6HR MIN TEMP:  36; 6HR MAX TEMP:  44;

DIXON          CLOUDY    39  32  77 SW5       30.24R
RAWLINS        CLOUDY    40  29  64 SW14      30.15S WCI  32
6HR MIN TEMP:  38; 6HR MAX TEMP:  47;

SARATOGA       CLOUDY    39  32  75 SW12G18   30.18S WCI  32
LARAMIE        FAIR      36  25  64 S9        30.12R WCI  29
6HR MIN TEMP:  33; 6HR MAX TEMP:  51;

CHEYENNE       FAIR      45  23  42 W9        30.05R
6HR MIN TEMP:  41; 6HR MAX TEMP:  57;

TORRINGTON     FAIR      46  26  45 SW3       29.96R
6HR MIN TEMP:  43; 6HR MAX TEMP:  63;

PINE BLUFFS    FAIR      37  27  65 W7        30.01S WCI  32

$$


USA.gov is the U.S. government's official web portal to all federal, state and local government web resources and services.